sat.trackr.live / text

‹ back to catalog

STARLINK-32788

NORAD 62502 · 2025-003R

PAYLOAD ACTIVE UNKNOWN

§ Identity

Operator
Country
US
Launch date
2025-01-06
Launch site
AFETR
Launch vehicle
Mass (kg)
RCS (m²)

Purposes: comms

External: N2YO · Heavens-Above · Gunter

§ Orbital elements

Epoch: 2026-05-24T16:13:00.564672Z

Period
94.27 min
Inclination
43.0015°
Eccentricity
0.0001925
Mean motion
15.27583845 rev/d
Perigee alt
481.7 km
Apogee alt
484.4 km
Semi-major
6,861.2 km
B*
5.7699e-4
RAAN
219.7570°
Arg perigee
275.1880°
Mean anomaly
84.8752°
Rev number
7,817

§ Raw data

STARLINK-327881 62502U 25003R   26144.67570098  .00015651  00000+0  57699-3 0  99902 62502  43.0015 219.7570 0001925 275.1880  84.8752 15.27583845 78174

JSON: /api/v1/satellites/62502 · /tle

For live sub-satellite position, see the globe view (requires WebGL).

§ Visibility from observer

Set your observer location to see the next 7 days of passes ≥ 10°. The values pass through the URL so the page stays shareable.

No JS? Fill the form by hand. The geolocation button needs JavaScript.